Mona Airport

Jump to: basic info | weather | comments

Related pages: nearby airports | nearby navaids

Basic information (top)

Location: lon 18.075300, lat -67.931000, elev 1 ft / 0 m msl
Status: small_airport

Weather (top)

Current conditions for Punta Cana International Airport 38nm (71km) NW (rec'd 2014/08/21 12:00Z):

MDPC 211200Z 09008KT 040V100 9999 SCT021 29/25 Q1016 NOSIG

Airport forecast for Punta Cana International Airport 38nm (71km) NW (rec'd 2014/08/20 18:04Z):

TAF MDPC 201600Z 2018/2118 11010KT 7000 TSRA FEW014CB SCT017 BKN070 
      TEMPO 2100/2106 8000 SH BKN017 
      BECMG 2106/2109 00000KT

Latest comments (top)

No comments yet for Mona Airport

More... (top)

See also NOTAMs and nearby airports and navaids, or visit the Mona Airport page at the main OurAirports website..